Regional Weather Roundup
Issued by NWS

Home | Current Version | Previous Version | Graphics & Text | Print | Product List | Glossary On
Versions: 1 2 3 4 5 6 7 8 9 10 11 12 13 14 15 16 17 18 19 20 21 22 23 24 25 26 27 28 29 30 31 32 33 34 35 36 37 38 39 40 41 42 43 44 45 46 47 48 49 50
000
ASUS45 KABQ 060701
RWRNM
NEW MEXICO REGIONAL WEATHER ROUNDUP
NATIONAL WEATHER SERVICE ALBUQUERQUE NM
100 AM MDT MON JUL 06 2015

NOTE: "FAIR" MEANS FEW OR NO CLOUDS BELOW 12,000 FEET AGL WITH NO
       SIGNIFICANT WEATHER OR OBSTRUCTIONS TO VISION.

      THIS PRODUCT IS RELEASED AS TWO VERSIONS.  ONE VERSION NEAR
      THE TOP OF THE HOUR CONTAINING PRELIMINARY DATA FROM ALBUQUERQUE
      AND OTHER STATIONS.  A FINAL VERSION WITH ADDITIONAL DATA IS
      ISSUED ABOUT 10 MINUTES AFTER THE HOUR.

NMZ501-503-504-510>518-060800-
NORTHWEST PLATEAU/NORTHCENTRAL MOUNTAINS

CITY           SKY/WX    TMP DP  RH WIND       PRES   REMARKS
FARMINGTON     CLEAR     66  51  58 S6        30.13S
SANTA FE       CLOUDY    63  56  78 N8        30.20S
TAOS           CLOUDY    59  48  67 W6        30.25F

$$
NMZ402-403-502-505>509-060800-
WESTCENTRAL MOUNTAINS/SOUTHWEST MOUNTAINS

CITY           SKY/WX    TMP DP  RH WIND       PRES   REMARKS
GALLUP         LGT RAIN  61  58  90 W6        30.27S
SILVER CITY      N/A     66  59  77 NW10      30.19S

$$
NMZ407-409-411-412-060800-
SOUTHERN DESERTS

CITY           SKY/WX    TMP DP  RH WIND       PRES   REMARKS
DEMING         MOCLDY    72  60  66 W12       30.09F
HOLLOMAN AFB   PTCLDY    75  63  66 E7        30.01F
ALAMOGORDO     PTCLDY    77  59  53 S3        30.04S
T OR C         CLOUDY    75  56  51 NW10      30.11R

$$
NMZ519>523-060800-
CENTRAL VALLEYS/CENTRAL HIGHLANDS

CITY           SKY/WX    TMP DP  RH WIND       PRES   REMARKS
ALBUQUERQUE    CLOUDY    68  61  78 S5        30.16S
DOUBLE EAGLE   DRIZZLE   63  60  89 NW9       30.20R
CLINES CORNERS CLOUDY    62  54  74 W14       30.21R
BELEN          CLOUDY    68  60  73 CALM      30.14F
SOCORRO        NOT AVBL

$$
NMZ524>526-539-540-060800-
SOUTHCENTRAL MOUNTAINS

CITY           SKY/WX    TMP DP  RH WIND       PRES   REMARKS
RUIDOSO        NOT AVBL

$$
NMZ527>531-060800-
NORTHEAST HIGHLANDS/NORTHEAST PLAINS

CITY           SKY/WX    TMP DP  RH WIND       PRES   REMARKS
LAS VEGAS      MOCLDY    61  53  75 NE7       30.16F
RATON          MOCLDY    65  57  75 NE10      30.11R
CLAYTON        PTCLDY    71  57  61 SW9       29.99F

$$
NMZ532>537-060800-
EASTCENTRAL PLAINS

CITY           SKY/WX    TMP DP  RH WIND       PRES   REMARKS
TUCUMCARI      CLEAR     79  57  46 S9        29.96R
CANNON AFB     PTCLDY    71  62  71 S8        30.01S
CLOVIS AIRPORT PTCLDY    72  61  68 S9          N/A

$$
NMZ028-029-538-060800-
SOUTHEAST PLAINS

CITY           SKY/WX    TMP DP  RH WIND       PRES   REMARKS
ROSWELL        MOCLDY    77  60  55 S9        29.96F
ARTESIA        MOCLDY    81  63  54 SW8       29.97F
CARLSBAD       CLOUDY    81  60  48 E7        29.96R
HOBBS          PTCLDY    75  64  69 S14       30.02F


$$


USA.gov is the U.S. government's official web portal to all federal, state and local government web resources and services.